EW7351 Weather Reports


time (UTC)temp
C
wind
direction
speed
KPH
gust
KPH
rain 1hr
cm
rain 24hr
cm
rain mn
cm
humidity
%
barometer
mb
20260506062314 16 359 3.2 9.7 0.00 0.00 0.00 72 1008.2
20260506061747 16 340 3.2 9.7 0.00 0.00 0.00 72 1008.3
20260506061224 16 359 4.8 14.5 0.00 0.00 0.00 72 1008.2
20260506060914 16 4 4.8 14.5 0.00 0.00 0.00 72 1008.1
20260506060200 16 44 4.8 11.3 0.00 0.00 0.00 72 1008.0
20260506050909 17 344 4.8 16.1 0.00 0.00 0.00 72 1008.0
20260506050346 17 346 4.8 16.1 0.00 0.00 0.00 72 1007.8
20260506044813 18 14 4.8 14.5 0.00 0.00 0.00 71 1007.8
20260506044311 18 350 4.8 16.1 0.00 0.00 0.00 71 1007.8
20260506043756 18 344 6.4 16.1 0.00 0.00 0.00 70 1007.7
20260506043243 18 39 4.8 14.5 0.00 0.00 0.00 71 1007.6
20260506042742 19 343 3.2 12.9 0.00 0.00 0.00 70 1007.7
20260506042243 19 320 4.8 12.9 0.00 0.00 0.00 71 1007.5
20260506042007 19 49 4.8 16.1 0.00 0.00 0.00 70 1007.3
20260506041243 20 349 4.8 16.1 0.00 0.00 0.00 70 1007.2
20260506040739 20 21 4.8 11.3 0.00 0.00 0.00 69 1007.2
20260506040240 20 351 6.4 17.7 0.00 0.00 0.00 69 1007.2
20260506035709 20 354 8.0 17.7 0.00 0.00 0.00 69 1007.3
20260506035206 20 34 6.4 16.1 0.00 0.00 0.00 69 1007.1
20260506034652 21 327 4.8 19.3 0.00 0.00 0.00 69 1007.1
20260506034153 21 27 4.8 12.9 0.00 0.00 0.00 69 1007.0
20260506033647 21 12 4.8 17.7 0.00 0.00 0.00 69 1006.8
20260506033144 21 23 6.4 17.7 0.00 0.00 0.00 69 1007.1
20260506032620 21 18 6.4 14.5 0.00 0.00 0.00 68 1006.8
20260506032113 21 349 6.4 14.5 0.00 0.00 0.00 68 1006.4
20260506031612 21 2 6.4 14.5 0.00 0.00 0.00 68 1006.6
20260506031113 21 17 6.4 17.7 0.00 0.00 0.00 68 1006.8
20260506030845 21 304 6.4 17.7 0.00 0.00 0.00 68 1006.7
20260506030048 22 355 8.0 22.5 0.00 0.00 0.00 67 1006.3
20260506025544 22 347 8.0 22.5 0.00 0.00 0.00 67 1006.2
20260506025045 22 349 8.0 19.3 0.00 0.00 0.00 66 1005.9
20260506024537 23 29 6.4 19.3 0.00 0.00 0.00 66 1005.9
20260506024037 23 15 6.4 12.9 0.00 0.00 0.00 65 1005.7
20260506023513 23 33 4.8 12.9 0.00 0.00 0.00 65 1005.5
20260506023011 23 347 3.2 11.3 0.00 0.00 0.00 65 1005.3
20260506022459 23 344 3.2 12.9 0.00 0.00 0.00 65 1005.1
20260506022002 23 23 3.2 12.9 0.00 0.00 0.00 65 1004.9
20260506021457 23 345 1.6 8.0 0.00 0.00 0.00 64 1004.7
20260506021000 23 333 3.2 16.1 0.00 0.00 0.00 64 1004.9
20260506020456 23 340 3.2 16.1 0.00 0.00 0.00 64 1004.7
20260506015954 23 338 4.8 9.7 0.00 0.00 0.00 63 1004.7
20260506015423 23 347 3.2 11.3 0.00 0.00 0.00 63 1004.8
20260506014919 23 345 3.2 11.3 0.00 0.00 0.00 63 1004.8
20260506014415 23 359 3.2 11.3 0.00 0.00 0.00 63 1004.4
20260506013914 24 32 4.8 14.5 0.00 0.00 0.00 63 1004.5
20260506013349 24 310 4.8 14.5 0.00 0.00 0.00 63 1004.3
20260506012823 24 308 4.8 12.9 0.00 0.00 0.00 63 1004.4
20260506012253 25 340 4.8 12.9 0.00 0.00 0.00 62 1004.6
20260506012012 25 325 3.2 12.9 0.00 0.00 0.00 62 1004.3
20260506011237 25 345 3.2 11.3 0.00 0.00 0.00 61 1004.0
20260506010734 25 9 1.6 6.4 0.00 0.00 0.00 61 1003.9
20260506010211 26 39 1.6 6.4 0.00 0.00 0.00 61 1003.9
20260506005705 26 328 1.6 6.4 0.00 0.00 0.00 61 1003.8
20260506005204 26 10 0.0 6.4 0.00 0.00 0.00 61 1003.9
20260506004639 26 236 0.0 6.4 0.00 0.00 0.00 61 1003.9
20260506004109 26 236 1.6 6.4 0.00 0.00 0.00 61 1004.0
20260506003607 26 231 3.2 14.5 0.00 0.00 0.00 63 1003.7
20260506003042 26 262 3.2 14.5 0.00 0.00 0.00 65 1003.6
20260506002537 26 161 4.8 12.9 0.00 0.00 0.00 74 1003.8
20260506002035 27 224 6.4 14.5 0.00 0.00 0.00 72 1003.8
20260506001514 27 214 4.8 14.5 0.00 0.00 0.00 71 1003.9
20260506001015 27 113 4.8 12.9 0.00 0.00 0.00 68 1003.5
20260506000516 28 229 6.4 16.1 0.00 0.00 0.00 66 1003.3
20260505235947 28 139 4.8 16.1 0.00 0.00 0.00 65 1003.1
20260505235930 28 266 6.4 14.5 0.00 0.00 0.00 65 1002.7
20260505234942 28 129 11.3 25.7 0.00 0.00 0.00 65 1002.7
20260505234638 28 225 11.3 25.7 0.00 0.00 0.00 64 1002.4
20260505233908 28 226 9.7 20.9 0.00 0.00 0.00 64 1002.6
20260505233344 28 177 9.7 20.9 0.00 0.00 0.00 63 1002.7
20260505233041 29 97 9.7 20.9 0.00 0.00 0.00 63 1002.6
20260505232312 29 174 8.0 19.3 0.00 0.00 0.00 62 1002.4
20260505231747 29 263 6.4 19.3 0.00 0.00 0.00 62 1002.5
20260505231219 29 210 8.0 19.3 0.00 0.00 0.00 62 1002.5
20260505230717 29 173 8.0 19.3 0.00 0.00 0.00 62 1002.5
20260505230213 30 240 6.4 16.1 0.00 0.00 0.00 61 1002.4
20260505225649 30 177 6.4 14.5 0.00 0.00 0.00 61 1002.4
20260505225137 30 166 6.4 12.9 0.00 0.00 0.00 61 1002.4
20260505224638 30 231 6.4 17.7 0.00 0.00 0.00 61 1002.3
20260505224133 29 170 6.4 17.7 0.00 0.00 0.00 62 1002.4
20260505224118 30 135 8.0 16.1 0.00 0.00 0.00 62 1002.2
20260505223103 30 70 8.0 16.1 0.00 0.00 0.00 61 1002.0
20260505222540 30 136 8.0 16.1 0.00 0.00 0.00 58 1002.1
20260505222012 30 191 8.0 16.1 0.00 0.00 0.00 57 1002.1
20260505221731 30 202 6.4 16.1 0.00 0.00 0.00 56 1002.2
20260505220941 31 151 6.4 17.7 0.00 0.00 0.00 56 1002.2
20260505220438 31 182 6.4 17.7 0.00 0.00 0.00 56 1002.1
20260505215937 31 141 6.4 14.5 0.00 0.00 0.00 57 1002.1
20260505215634 31 224 4.8 11.3 0.00 0.00 0.00 55 1002.1
20260505214910 31 254 6.4 22.5 0.00 0.00 0.00 53 1002.2
20260505214341 31 251 6.4 22.5 0.00 0.00 0.00 54 1002.4
20260505213841 31 262 4.8 14.5 0.00 0.00 0.00 53 1002.4
20260505213316 31 144 8.0 20.9 0.00 0.00 0.00 53 1002.3
20260505212747 31 213 9.7 20.9 0.00 0.00 0.00 52 1002.4
20260505212501 31 210 8.0 19.3 0.00 0.00 0.00 53 1002.5
20260505211932 31 165 8.0 20.9 0.00 0.00 0.00 54 1002.5
20260505211153 31 231 8.0 20.9 0.00 0.00 0.00 53 1002.5
20260505210921 31 220 8.0 24.1 0.00 0.00 0.00 52 1002.5
20260505210354 31 277 11.3 24.1 0.00 0.00 0.00 53 1002.5
20260505205852 31 221 11.3 25.7 0.00 0.00 0.00 53 1002.7
20260505205116 31 231 9.7 25.7 0.00 0.00 0.00 53 1002.6
20260505204550 31 127 9.7 19.3 0.00 0.00 0.00 55 1002.9
20260505204248 31 213 9.7 22.5 0.00 0.00 0.00 54 1003.0
20260505203500 31 120 11.3 22.5 0.00 0.00 0.00 54 1002.9
20260505203207 31 208 11.3 20.9 0.00 0.00 0.00 54 1002.9
20260505202413 30 223 9.7 20.9 0.00 0.00 0.00 56 1003.0
20260505201909 31 214 9.7 25.7 0.00 0.00 0.00 55 1003.1
20260505201351 30 133 11.3 25.7 0.00 0.00 0.00 55 1003.1
20260505200842 30 217 9.7 20.9 0.00 0.00 0.00 58 1003.3
20260505200316 30 139 9.7 20.9 0.00 0.00 0.00 55 1003.1
20260505200018 30 240 8.0 20.9 0.00 0.00 0.00 55 1003.2
20260505195224 30 245 8.0 20.9 0.00 0.00 0.00 58 1003.1
20260505194921 30 243 11.3 20.9 0.00 0.00 0.00 60 1003.2
20260505194134 30 124 11.3 20.9 0.00 0.00 0.00 58 1003.4
20260505193631 30 128 9.7 20.9 0.00 0.00 0.00 60 1003.2
20260505193131 29 229 11.3 25.7 0.00 0.00 0.00 60 1003.1
20260505192600 29 236 11.3 25.7 0.00 0.00 0.00 60 1003.3
20260505192318 29 217 11.3 24.1 0.00 0.00 0.00 60 1003.3
20260505191819 28 161 11.3 24.1 0.00 0.00 0.00 60 1003.3
20260505191322 28 191 9.7 24.1 0.00 0.00 0.00 61 1003.4
20260505190600 28 237 9.7 22.5 0.00 0.00 0.00 61 1003.4
20260505190035 28 210 9.7 22.5 0.00 0.00 0.00 61 1003.5
20260505185537 28 240 11.3 22.5 0.00 0.00 0.00 62 1003.5
20260505185006 28 154 9.7 25.7 0.00 0.00 0.00 61 1003.5
20260505184505 28 166 11.3 25.7 0.00 0.00 0.00 63 1003.6
20260505184005 28 219 12.9 25.7 0.00 0.00 0.00 62 1003.6
20260505183503 28 202 12.9 22.5 0.00 0.00 0.00 61 1003.6
20260505182959 28 174 12.9 24.1 0.00 0.00 0.00 62 1003.6
20260505182653 28 136 12.9 22.5 0.00 0.00 0.00 62 1003.6
20260505181927 28 231 12.9 29.0 0.00 0.00 0.00 62 1003.7
20260505181424 28 228 14.5 29.0 0.00 0.00 0.00 62 1003.7
20260505180920 28 143 12.9 22.5 0.00 0.00 0.00 61 1003.7
20260505180416 28 141 12.9 20.9 0.00 0.00 0.00 61 1003.7
20260505175914 28 224 14.5 24.1 0.00 0.00 0.00 62 1003.7
20260505175344 28 173 12.9 24.1 0.00 0.00 0.00 61 1003.7
20260505174845 28 234 11.3 20.9 0.00 0.00 0.00 61 1003.8
20260505174545 28 204 11.3 20.9 0.00 0.00 0.00 61 1003.8
20260505173802 28 236 11.3 24.1 0.00 0.00 0.00 61 1003.8
20260505173302 28 172 12.9 24.1 0.00 0.00 0.00 62 1003.7
20260505172732 28 174 12.9 25.7 0.00 0.00 0.00 63 1003.8
20260505172218 27 257 12.9 25.7 0.00 0.00 0.00 62 1003.7
20260505171718 27 150 12.9 22.5 0.00 0.00 0.00 63 1003.8
20260505171217 27 221 14.5 25.7 0.00 0.00 0.00 63 1003.9
20260505170723 27 160 16.1 33.8 0.00 0.00 0.00 63 1004.0
20260505170434 27 249 14.5 33.8 0.00 0.00 0.00 63 1003.9
20260505165711 27 166 12.9 25.7 0.00 0.00 0.00 64 1003.9
20260505165431 27 205 12.9 25.7 0.00 0.00 0.00 65 1003.9
20260505164705 27 275 12.9 32.2 0.00 0.00 0.00 64 1003.9
20260505164202 27 175 14.5 32.2 0.00 0.00 0.00 64 1003.8
20260505163701 27 257 14.5 30.6 0.00 0.00 0.00 65 1003.8
20260505163137 27 107 14.5 30.6 0.00 0.00 0.00 65 1003.8
20260505162606 26 205 12.9 25.7 0.00 0.00 0.00 66 1003.9
20260505162106 26 210 12.9 27.4 0.00 0.00 0.00 65 1003.6
20260505161537 26 169 12.9 27.4 0.00 0.00 0.00 65 1003.5
20260505161038 26 258 12.9 25.7 0.00 0.00 0.00 66 1003.6
20260505160509 26 136 12.9 27.4 0.00 0.00 0.00 68 1003.6
20260505153357 25 240 14.5 25.7 0.00 0.00 0.00 72 1003.8
20260505153117 25 182 14.5 24.1 0.00 0.00 0.00 72 1003.7
20260505152617 24 174 12.9 27.4 0.00 0.00 0.00 72 1003.8
20260505151848 24 185 12.9 27.4 0.00 0.00 0.00 73 1003.8
20260505151323 24 221 12.9 29.0 0.00 0.00 0.00 73 1003.9
20260505150754 24 170 11.3 29.0 0.00 0.00 0.00 73 1003.8
20260505150251 23 236 11.3 22.5 0.00 0.00 0.00 74 1003.9
20260505140546 22 143 12.9 30.6 0.00 0.00 0.00 77 1003.6
20260505130244 22 207 9.7 22.5 0.00 0.00 0.00 79 1003.6
20260505124712 21 203 9.7 24.1 0.00 0.00 0.00 79 1003.5
20260505124144 21 176 9.7 22.5 0.00 0.00 0.00 79 1003.3
20260505123643 21 141 11.3 24.1 0.00 0.00 0.00 79 1003.0
20260505123347 21 221 11.3 24.1 0.00 0.00 0.00 79 1003.1
20260505122548 21 214 11.3 29.0 0.00 0.00 0.00 79 1003.1
20260505122313 21 170 11.3 29.0 0.00 0.00 0.00 79 1003.0
20260505121522 21 223 9.7 25.7 0.00 0.00 0.00 79 1003.1
20260505120955 21 231 8.0 17.7 0.00 0.00 0.00 79 1003.0
20260505120649 21 246 8.0 17.7 0.00 0.00 0.00 79 1003.0
20260505120408 21 223 9.7 19.3 0.00 0.00 0.00 79 1002.9
20260505115357 21 229 12.9 25.7 0.00 0.00 0.00 79 1002.9
20260505114855 21 124 12.9 29.0 0.00 0.00 0.00 79 1002.9
20260505114328 21 203 12.9 29.0 0.00 0.00 0.00 79 1002.8
20260505113824 21 179 11.3 25.7 0.00 0.00 0.00 79 1002.7
20260505113323 21 188 12.9 25.7 0.00 0.00 0.00 79 1002.6
20260505112802 21 158 12.9 25.7 0.00 0.00 0.00 79 1002.6
20260505112225 21 164 11.3 22.5 0.00 0.00 0.00 79 1002.6
20260505111725 21 245 9.7 20.9 0.00 0.00 0.00 79 1002.8
20260505111417 21 248 11.3 22.5 0.00 0.00 0.00 79 1002.9
20260505110654 21 152 9.7 22.5 0.00 0.00 0.00 79 1002.8
20260505110142 21 167 9.7 20.9 0.00 0.00 0.00 79 1002.7
20260505102017 21 205 11.3 27.4 0.00 0.00 0.00 78 1002.9
20260505101520 21 129 11.3 20.9 0.00 0.00 0.00 78 1002.8
20260505101014 21 207 11.3 22.5 0.00 0.00 0.00 78 1002.8
20260505100729 21 235 12.9 35.4 0.00 0.00 0.00 78 1002.8
20260505095953 21 283 12.9 35.4 0.00 0.00 0.00 78 1002.8
20260505095454 21 221 12.9 29.0 0.00 0.00 0.00 78 1003.0
20260505094955 21 225 12.9 27.4 0.00 0.00 0.00 78 1003.0
20260505094451 21 153 14.5 25.7 0.00 0.00 0.00 78 1003.0
20260505093949 21 248 14.5 27.4 0.00 0.00 0.00 78 1003.1
20260505093426 21 226 14.5 27.4 0.00 0.00 0.00 78 1003.0
20260505092929 21 173 12.9 27.4 0.00 0.00 0.00 78 1003.2
20260505092405 21 217 12.9 25.7 0.00 0.00 0.00 78 1003.3
20260505091839 21 210 12.9 25.7 0.00 0.00 0.00 78 1003.2
20260505091601 21 137 12.9 25.7 0.00 0.00 0.00 78 1003.2
20260505090838 21 225 11.3 27.4 0.00 0.00 0.00 78 1003.3
20260505090325 21 161 12.9 29.0 0.00 0.00 0.00 78 1003.1
20260505085759 21 155 12.9 29.0 0.00 0.00 0.00 78 1003.1
20260505085253 21 219 14.5 29.0 0.00 0.00 0.00 78 1003.2
20260505085020 21 250 14.5 29.0 0.00 0.00 0.00 78 1003.1
20260505084254 21 224 12.9 25.7 0.00 0.00 0.00 78 1003.1
20260505083726 21 238 12.9 27.4 0.00 0.00 0.00 78 1003.1
20260505083225 21 225 12.9 27.4 0.00 0.00 0.00 78 1003.1
20260505083205 21 151 14.5 30.6 0.00 0.00 0.00 78 1003.2
20260505082222 21 250 12.9 30.6 0.00 0.00 0.00 78 1003.3
20260505081721 21 216 12.9 25.7 0.00 0.00 0.00 78 1003.3
20260505081650 21 191 14.5 24.1 0.00 0.00 0.00 78 1003.2
20260505080703 21 224 12.9 24.1 0.00 0.00 0.00 78 1003.2
20260505080653 21 215 12.9 24.1 0.00 0.00 0.00 78 1003.4
20260505075703 21 146 12.9 24.1 0.00 0.00 0.00 78 1003.5
20260505075204 21 232 11.3 25.7 0.00 0.00 0.00 78 1003.5
20260505074636 21 221 12.9 29.0 0.00 0.00 0.00 77 1003.7
20260505074136 21 161 12.9 29.0 0.00 0.00 0.00 77 1003.8
20260505073608 21 234 11.3 27.4 0.00 0.00 0.00 77 1003.9
20260505073109 21 211 9.7 22.5 0.00 0.00 0.00 77 1003.9
20260505072607 21 164 11.3 30.6 0.00 0.00 0.00 77 1004.1
20260505072304 22 198 12.9 30.6 0.00 0.00 0.00 76 1004.1
20260505071537 22 156 14.5 35.4 0.00 0.00 0.00 76 1004.0
20260505071436 22 107 14.5 38.6 0.00 0.00 0.00 76 1004.1
20260505071103 22 135 14.5 35.4 0.00 0.00 0.00 76 1004.0